Regional Weather Roundup
Issued by NWS

Home | Current Version | Previous Version | Graphics & Text | Print | Product List | Glossary On
Versions: 1 2 3 4 5 6 7 8 9 10 11 12 13 14 15 16 17 18 19 20 21 22 23 24 25 26 27 28 29 30 31 32 33 34 35 36 37 38 39 40 41 42 43 44 45 46 47 48 49 50
000
ASUS45 KPSR 212310
RWRAZ

ARIZONA HOURLY REGIONAL WEATHER ROUNDUP
NATIONAL WEATHER SERVICE PHOENIX AZ
400 PM MST THU SEP 21 2017

NOTE: FAIR INDICATES FEW OR NO CLOUDS BELOW 12,000 FEET WITH NO
SIGNIFICANT WEATHER AND/OR OBSTRUCTIONS TO VISIBILITY.

AZZ001>003-036-220000-
NORTHWEST ARIZONA

CITY           SKY/WX    TMP DP  RH WIND       PRES   REMARKS
BULLHEAD CITY  SUNNY     93  39  15 SW18G28   29.54F
KINGMAN        SUNNY     82  34  17 S25G40    29.72F
$$

AZZ004>008-015-016-018-220000-
NORTH CENTRAL ARIZONA

CITY           SKY/WX    TMP DP  RH WIND       PRES   REMARKS
GRAND CANYON   SUNNY     70  29  21 SW32G45   29.89F
WILLIAMS       SUNNY     68  27  21 S22G35    29.93F
PRESCOTT       SUNNY     74  32  21 S20G29    29.87F
FLAGSTAFF      SUNNY     66  28  24 SW33G40   29.96R
PAYSON           N/A     77  32  19 SW17G28   29.92F
PAGE           SUNNY     85  26  11 SW14G28   29.65F
$$

AZZ009>014-017-220000-
NORTHEAST ARIZONA

CITY           SKY/WX    TMP DP  RH WIND       PRES   REMARKS
WINSLOW        SUNNY     83  26  12 S26G35    29.85F
SAINT JOHNS    MOSUNNY   81  35  19 SW23G38   29.92F
WINDOW ROCK    SUNNY     77  26  15 S28G37    29.97F
SHOW LOW       SUNNY     75  37  25 S36       29.98F
$$

AZZ540-542>544-546-548-220000-
GREATER PHOENIX AREA

CITY           SKY/WX    TMP DP  RH WIND       PRES   REMARKS
PHOENIX        MOSUNNY   97  41  14 SW16G23   29.64F
BUCKEYE        SUNNY     95  39  14 S16G22    29.65F
GLENDALE       SUNNY     97  43  15 S12G22    29.66F
LUKE AFB       SUNNY     96  40  14 SW13G25   29.63F
DEER VALLEY    SUNNY     92  42  17 SW5G17    29.66F
SCOTTSDALE     SUNNY     94  40  15 SW13      29.69F
MESA-FALCON    SUNNY     97  45  16 S14G22    29.67F
MESA-GATEWAY   MOSUNNY   95  37  13 SW16G23   29.68F
CHANDLER       SUNNY    N/A N/A N/A SW21      29.66F
$$

AZZ539-553-220000-
SOUTHWEST MARICOPA COUNTY AND PINAL COUNTY

CITY           SKY/WX    TMP DP  RH WIND       PRES   REMARKS
CASA GRANDE    NOT AVBL
GILA BEND      SUNNY     96  31  10 SW21      29.64F
$$

AZZ503-504-507>509-220000-
SOUTHEAST ARIZONA

CITY           SKY/WX    TMP DP  RH WIND       PRES   REMARKS
TUCSON         SUNNY     95  43  16 SW16G25   29.79F
DAVIS-MONTHAN  MOSUNNY   95  43  16 SW12G22   29.77F
RYAN FIELD     SUNNY     95  43  16 SW8G25    29.77F
NOGALES        SUNNY     90  40  17 SW12G22   29.90F
SIERRA VISTA   SUNNY     86  36  16 SW18G29   29.96S
DOUGLAS        SUNNY     90  34  13 SW22G29   29.90F
SAFFORD        MOSUNNY   93  42  17 CALM      29.77F
$$

AZZ532-220000-
SOUTHWEST ARIZONA

CITY           SKY/WX    TMP DP  RH WIND       PRES   REMARKS
YUMA           SUNNY     92  48  22 W13       29.64F
$$

CAZ041-043-047-048-061-525>527-560>570-220000-
SOUTHERN CALIFORNIA

CITY           SKY/WX    TMP DP  RH WIND       PRES   REMARKS
DOWNTOWN L.A.  SUNNY     71  52  50 VRB3      29.81F
L.A. AIRPORT   MOSUNNY   70  55  59 W15       29.82F
SAN DIEGO      PTSUNNY   72  54  53 W15G22    29.87S
BURBANK        SUNNY     70  47  43 S14       29.80S
ONTARIO        PTSUNNY   70  54  56 W10       29.82F
RIVERSIDE      PTSUNNY   71  56  58 W16       29.81F
PALM SPRINGS   MOSUNNY   85  48  27 SW6       29.67F
EL CENTRO NAS  MOSUNNY   87  48  25 W29       29.70S
IMPERIAL       SUNNY     86  53  32 W25G32    29.64F
BLYTHE         SUNNY     91  44  19 SW23G30   29.63F
NEEDLES        SUNNY     96  36  12 SW21G29   29.57F
$$

NVZ020-UTZ003-220000-
SOUTHERN NEVADA-UTAH

CITY           SKY/WX    TMP DP  RH WIND       PRES   REMARKS
LAS VEGAS      MOSUNNY   79  46  31 SW21G37   29.63R
SALT LAKE CITY CLOUDY    53  41  63 NW18      29.72R
$$

NMZ009-TXZ055-220000-
NEW MEXICO-WEST TEXAS

CITY           SKY/WX    TMP DP  RH WIND       PRES   REMARKS
ALBUQUERQUE    MOSUNNY   86  36  16 S18G32    29.89F
EL PASO        MOSUNNY   92  43  18 S9G20     29.88F
$$


........................KEY........................
SKY/WX - SKY CONDITION/WEATHER
TMP    - TEMPERATURE IN FAHRENHEIT
DP     - DEW POINT IN FAHRENHEIT
RH     - RELATIVE HUMIDITY IN PERCENT
WIND   - DIRECTION AND SPEED IN MILES PER HOUR (MPH)
VRB    - VARIABLE WIND DIRECTION
PRES   - MEAN SEA LEVEL PRESSURE IN INCHES OF MERCURY
         F - FALLING PRESSURE   R - RISING PRESSURE
         S - STEADY PRESSURE
VSB    - VISIBILITY IN MILES
HX     - HEAT INDEX IN FAHRENHEIT
WCI    - WIND CHILL INDEX IN FAHRENHEIT
TC     - TEMPERATURE IN CELSIUS WHICH IS ALSO KNOWN AS
         TEMPERATURE IN CENTIGRADE
AFB    - AIR FORCE BASE
         LUKE AFB IS LUKE AIR FORCE BASE
         DAVIS-MONTHAN IS DAVIS-MONTHAN AIR FORCE BASE
NAS    - NAVAL AIR STATION
         EL CENTRO NAS IS EL CENTRO NAVAL AIR STATION
N/A    - NOT AVAILABLE




USA.gov is the U.S. government's official web portal to all federal, state and local government web resources and services.